{"data":{"norad_id":48227,"intl_designator":"2021-031T","name":"ONEWEB-0206","alt_names":[],"object_type":"PAYLOAD","status":"ACTIVE","operator":null,"country":"UK","launch_date":"2021-04-25","launch_site_code":"VOSTO","launch_vehicle":null,"mission":null,"orbit_class":"UNKNOWN","rcs_meters":null,"size_class":null,"mass_kg":null,"dimensions":null,"purposes":["comms"],"wikipedia_slug":null,"has_3d_model":false,"image_url":null,"decayed_at":null,"tle_current":{"epoch":"2026-05-25T02:57:27.180000Z","epoch_age_seconds":67952,"freshness":"FRESH","line1":"1 48227U 21031T   26145.12323125 -.00000140  00000+0 -41164-3 0  9992","line2":"2 48227  87.8948 294.2968 0001879  92.3449 267.7896 13.14502745245193","mean_motion":13.14502745,"eccentricity":0.0001879,"inclination_deg":87.8948,"raan_deg":294.2968,"arg_perigee_deg":92.3449,"mean_anomaly_deg":267.7896,"bstar":-0.00041164,"rev_number":24519,"period_min":109.54712764788,"perigee_km":1204.3655461999,"apogee_km":1207.2155861792,"semimajor_km":7583.9275661896,"source":"CELESTRAK","updated_at":"2026-05-25T13:38:22.436840Z"}}}